sat.trackr.live / text

‹ back to catalog

STARLINK-6130

NORAD 57104 · 2023-090D

PAYLOAD ACTIVE UNKNOWN

§ Identity

Operator
Country
US
Launch date
2023-06-23
Launch site
AFETR
Launch vehicle
Mass (kg)
RCS (m²)

Purposes: comms

External: N2YO · Heavens-Above · Gunter

§ Orbital elements

Epoch: 2026-05-25T05:00:30.955968Z

Period
94.27 min
Inclination
43.0022°
Eccentricity
0.0001491
Mean motion
15.27569870 rev/d
Perigee alt
482.1 km
Apogee alt
484.1 km
Semi-major
6,861.2 km
B*
-6.1656e-5
RAAN
209.5308°
Arg perigee
278.8323°
Mean anomaly
81.2359°
Rev number
16,202

§ Raw data

STARLINK-61301 57104U 23090D   26145.20869162 -.00001958  00000+0 -61656-4 0  99952 57104  43.0022 209.5308 0001491 278.8323  81.2359 15.27569870162024

JSON: /api/v1/satellites/57104 · /tle

For live sub-satellite position, see the globe view (requires WebGL).

§ Visibility from observer

Set your observer location to see the next 7 days of passes ≥ 10°. The values pass through the URL so the page stays shareable.

No JS? Fill the form by hand. The geolocation button needs JavaScript.